x

Kenosha, Wi (knsw3) Weather Station

5:00am - Fri 15th Dec 2017 All times are CST. -6 hours from GMT.

  • Wind
    10mph, 13mph gusts
  • Air Temp 25°f
  • Sea Pressure 1011.9mb
  • Kenosha, Wi
  • Kenosha, Wi

More Historic Weather Station data

Upgrade to MSW Pro to gain access to the past 30 days of data for over 8000 Wavebouys and Weather Stations around the globe.

Join

Comparision Forecast

View Surf forecast
   
Fri 12/15 5:00am 10 13 mph 1011.9mb 25f
4:50am 11 15 mph 1011.9mb 25f
4:40am 13 18 mph 1012.2mb 25f
4:30am 8 15 mph 1012.2mb 25f
4:20am 10 15 mph 1012.2mb 25f
4:10am 13 17 mph 1012.2mb 24f
4:00am 11 15 mph 1012.5mb 24f
3:50am 10 15 mph 1012.5mb 24f
3:40am 10 18 mph 1012.9mb 24f
3:30am 10 16 mph 1012.9mb 24f
3:20am 10 16 mph 1013.2mb 24f
3:10am 11 18 mph 1013.2mb 24f
3:00am 10 15 mph 1013.2mb 24f
2:50am 10 14 mph 1013.2mb 24f
2:40am 9 14 mph 1013.2mb 24f
2:30am 9 13 mph 1013.5mb 24f
2:20am 8 11 mph 1013.5mb 24f
2:10am 8 14 mph 1013.9mb 24f
2:00am 11 15 mph 1013.9mb 24f
1:50am 8 13 mph 1013.9mb 23f
1:40am 8 13 mph 1014.2mb 23f
1:30am 8 11 mph 1014.2mb 23f
1:20am 7 14 mph 1014.6mb 23f
1:10am 9 11 mph 1014.6mb 23f
1:00am 9 16 mph 1014.6mb 23f
12:50am 10 17 mph 1014.9mb 23f
12:40am 9 13 mph 1015.2mb 23f
12:30am 7 13 mph 1015.2mb 23f
12:20am 9 11 mph 1015.2mb 22f
12:10am 9 14 mph 1015.2mb 22f
12:00am 8 14 mph 1015.6mb 22f
Thu 12/14 11:50pm 9 14 mph 1015.6mb 22f
11:40pm 10 17 mph 1015.6mb 22f
11:30pm 9 13 mph 1015.6mb 22f
11:20pm 9 13 mph 1015.9mb 22f
11:10pm 9 13 mph 1016.3mb 22f
11:00pm 8 11 mph 1016.3mb 22f
10:50pm 7 10 mph 1016.3mb 22f
10:40pm 7 9 mph 1016.6mb 22f
10:30pm 7 9 mph 1016.6mb 22f
10:20pm 8 9 mph 1016.6mb 22f
10:10pm 6 9 mph 1016.9mb 22f
10:00pm 7 9 mph 1017.3mb 22f
9:50pm 7 9 mph 1017.6mb 22f
9:40pm 6 9 mph 1017.6mb 22f
9:30pm 7 9 mph 1017.6mb 22f
9:20pm 6 9 mph 1017.6mb 22f
9:10pm 5 7 mph 1017.6mb 22f
9:00pm 6 7 mph 1017.6mb 22f
8:50pm 6 9 mph 1017.9mb 22f
8:40pm 6 9 mph 1017.9mb 22f
8:30pm 7 8 mph 1017.9mb 22f
8:20pm 3 5 mph 1017.9mb 22f
8:10pm 3 5 mph 1017.9mb 22f
8:00pm 5 6 mph 1017.9mb 22f
7:50pm 3 5 mph 1017.9mb 21f
7:40pm 3 3 mph 1017.9mb 22f
7:30pm 3 5 mph 1017.9mb 22f
7:20pm 3 5 mph 1017.9mb 22f
7:10pm 3 5 mph 1017.9mb 22f
7:00pm 3 5 mph 1017.9mb 22f
6:50pm 3 5 mph 1017.9mb 22f
6:40pm 5 6 mph 1018.3mb 22f
6:30pm 6 7 mph 1018.3mb 22f
6:20pm 5 7 mph 1018.3mb 22f
6:10pm 6 7 mph 1018.3mb 22f
6:00pm 5 6 mph 1018.3mb 22f
5:50pm 6 7 mph 1018.3mb 23f
5:40pm 6 7 mph 1018.3mb 23f
5:30pm 5 6 mph 1018.3mb 23f
5:20pm 5 6 mph 1017.9mb 23f
5:10pm 3 5 mph 1017.9mb 23f
5:00pm 3 5 mph 1017.9mb 23f
4:50pm 3 5 mph 1017.9mb 23f
4:40pm 3 6 mph 1017.9mb 23f
4:30pm 5 7 mph 1017.9mb 24f
4:20pm 7 8 mph 1017.6mb 24f
4:10pm 6 8 mph 1017.6mb 24f
4:00pm 6 9 mph 1017.6mb 24f
2:00pm 10 13 mph 1017.3mb 24f
1:50pm 8 11 mph 1017.6mb 23f
1:40pm 8 14 mph 1017.6mb 23f
1:30pm 6 13 mph 1017.6mb 23f
1:20pm 10 13 mph 1017.6mb 23f
1:10pm 9 14 mph 1017.6mb 22f
1:00pm 10 16 mph 1017.6mb 22f
12:50pm 9 15 mph 1017.6mb 22f
12:40pm 11 14 mph 1017.6mb 22f
12:30pm 10 14 mph 1017.9mb 22f
12:20pm 11 15 mph 1017.9mb 22f
12:10pm 11 15 mph 1017.9mb 21f
12:00pm 8 13 mph 1017.9mb 22f
11:50am 10 15 mph 1018.3mb 21f
11:40am 9 13 mph 1018.3mb 21f
11:30am 11 13 mph 1018.3mb 21f
11:20am 9 13 mph 1018.6mb 21f
11:10am 9 13 mph 1018.6mb 21f
11:00am 9 15 mph 1018.6mb 21f
10:50am 11 14 mph 1018.6mb 20f
10:40am 10 13 mph 1018.6mb 20f
10:30am 9 11 mph 1019mb 20f
10:20am 8 10 mph 1019mb 20f
10:10am 7 10 mph 1019mb 20f
10:00am 8 10 mph 1018.6mb 19f
9:50am 8 10 mph 1018.6mb 19f
9:40am 9 10 mph 1018.6mb 19f
9:30am 8 11 mph 1018.6mb 19f
9:20am 9 13 mph 1018.6mb 18f
9:10am 10 13 mph 1018.3mb 17f
9:00am 10 14 mph 1017.9mb 17f
8:50am 11 17 mph 1017.9mb 17f
8:40am 13 17 mph 1017.6mb 16f
8:30am 13 17 mph 1017.6mb 15f
8:20am 14 18 mph 1017.6mb 15f
8:10am 14 18 mph 1017.6mb 15f
8:00am 14 20 mph 1017.3mb 15f
7:50am 13 18 mph 1017.3mb 15f
7:40am 15 21 mph 1016.9mb 15f
7:30am 14 21 mph 1016.9mb 14f
7:20am 15 21 mph 1016.6mb 14f
7:10am 14 20 mph 1016.6mb 14f
7:00am 11 18 mph 1016.6mb 14f
6:50am 13 17 mph 1016.3mb 15f
6:40am 13 18 mph 1016.3mb 15f
6:30am 13 17 mph 1015.9mb 16f
6:20am 14 21 mph 1015.9mb 15f
6:10am 14 20 mph 1015.2mb 16f
6:00am 16 20 mph 1015.2mb 15f
5:50am 15 21 mph 1014.9mb 15f
5:40am 14 20 mph 1014.6mb 15f
5:30am 13 18 mph 1014.6mb 15f
5:20am 13 16 mph 1014.6mb 14f
5:10am 11 16 mph 1014.6mb 15f
5:00am 11 18 mph 1014.2mb 15f
4:50am 13 17 mph 1014.2mb 15f
4:40am 14 18 mph 1014.2mb 15f
4:30am 15 20 mph 1014.2mb 15f
4:20am 14 18 mph 1013.9mb 15f
4:10am 13 20 mph 1013.9mb 15f
4:00am 14 18 mph 1013.9mb 15f
3:50am 14 20 mph 1013.5mb 16f
3:40am 16 21 mph 1013.2mb 15f
3:30am 14 20 mph 1013.2mb 15f
3:20am 15 20 mph 1013.2mb 15f
3:10am 15 18 mph 1012.9mb 15f
3:00am 14 16 mph 1012.9mb 16f
2:50am 13 17 mph 1012.9mb 16f
2:40am 11 16 mph 1012.5mb 16f
2:30am 13 20 mph 1012.5mb 17f
2:20am 11 16 mph 1012.2mb 17f
2:10am 14 17 mph 1012.5mb 17f
2:00am 11 16 mph 1012.2mb 17f
1:50am 10 15 mph 1011.9mb 18f
1:40am 13 16 mph 1011.5mb 18f
1:30am 14 22 mph 1011.2mb 19f
1:20am 16 21 mph 1011.5mb 19f
1:10am 14 21 mph 1011.5mb 20f
1:00am 17 22 mph 1011.2mb 20f
12:50am 20 25 mph 1010.5mb 21f
12:40am 16 23 mph 1010.5mb 21f
12:30am 20 24 mph 1010.2mb 22f
12:20am 18 22 mph 1010.2mb 22f
12:10am 18 29 mph 1009.8mb 23f
12:00am 23 28 mph 1009.5mb 23f
Wed 12/13 11:50pm 21 30 mph 1009.8mb 24f
11:40pm 18 30 mph 1009.5mb 24f
11:30pm 21 29 mph 1009.1mb 24f
11:20pm 23 31 mph 1008.1mb 25f
11:10pm 25 34 mph 1008.1mb 26f
11:00pm 24 30 mph 1007.5mb 26f
10:50pm 26 33 mph 1007.5mb 26f
10:40pm 29 37 mph 1006.8mb 27f
10:30pm 36 40 mph 1006.4mb 29f
10:20pm 36 41 mph 1006.1mb 29f
10:10pm 33 37 mph 1006.1mb 29f
10:00pm 26 34 mph 1006.1mb 29f
9:50pm 30 36 mph 1005.8mb 28f
9:40pm 30 36 mph 1005.4mb 28f
9:30pm 29 37 mph 1005.4mb 28f
9:20pm 30 36 mph 1005.1mb 28f
9:10pm 28 39 mph 1004.7mb 28f
9:00pm 31 36 mph 1004.1mb 29f
8:50pm 31 41 mph 1003.7mb 29f
8:40pm 31 36 mph 1003.4mb 29f
8:30pm 25 37 mph 1003mb 29f
8:20pm 30 34 mph 1002.7mb 29f
8:10pm 28 36 mph 1002.7mb 29f
8:00pm 26 36 mph 1002mb 29f
7:50pm 32 37 mph 1001.7mb 29f
7:40pm 25 33 mph 1001.4mb 29f
7:30pm 24 32 mph 1001mb 29f
7:20pm 26 32 mph 1000.3mb 30f
7:10pm 23 28 mph 1000mb 28f
7:00pm 21 28 mph 999.7mb 27f
6:50pm 22 26 mph 999mb 26f
6:40pm 21 28 mph 998.6mb 27f
6:30pm 22 30 mph 998.3mb 26f
6:20pm 21 29 mph 998mb 27f
6:10pm 21 28 mph 997.6mb 27f
6:00pm 24 31 mph 997mb 27f
5:50pm 20 30 mph 997mb 27f
5:40pm 23 32 mph 995.9mb 28f
5:30pm 24 32 mph 996.3mb 28f
5:20pm 25 31 mph 995.9mb 28f
5:10pm 24 34 mph 995.6mb 29f
5:00pm 28 37 mph 995.6mb 29f
4:50pm 24 33 mph 994.9mb 30f
4:40pm 24 31 mph 994.9mb 30f
4:30pm 18 30 mph 994.6mb 30f
4:20pm 23 31 mph 994.2mb 31f
4:10pm 25 32 mph 993.9mb 31f
4:00pm 22 33 mph 993.2mb 32f
3:50pm 15 24 mph 993.2mb 32f
3:40pm 13 17 mph 993.2mb 32f
3:30pm 11 15 mph 992.9mb 32f
3:20pm 11 16 mph 992.9mb 31f
3:10pm 11 17 mph 992.6mb 31f
3:00pm 14 17 mph 992.6mb 32f
2:50pm 13 16 mph 992.2mb 32f
2:40pm 13 15 mph 991.9mb 32f
2:30pm 13 17 mph 991.5mb 32f
2:20pm 11 16 mph 991.5mb 33f
2:10pm 8 14 mph 991.5mb 34f
2:00pm 13 16 mph 991.5mb 34f
1:50pm 3 8 mph 991.5mb 34f
1:40pm 7 13 mph 991.5mb 34f
1:30pm 6 9 mph 991.5mb 34f
1:20pm 7 11 mph 991.5mb 34f
1:10pm 7 11 mph 991.5mb 34f
1:00pm 6 10 mph 991.5mb 33f
12:50pm 6 8 mph 991.5mb 33f
12:00pm 11 14 mph 993.2mb 32f
11:50am 9 16 mph 993.2mb 32f
11:40am 13 21 mph 993.6mb 32f
11:30am 14 20 mph 993.6mb 32f
11:20am 14 18 mph 994.2mb 32f
11:10am 10 18 mph 994.6mb 32f
11:00am 13 21 mph 994.6mb 31f
10:50am 13 20 mph 994.9mb 31f
10:40am 14 21 mph 994.9mb 31f
10:30am 18 24 mph 995.3mb 31f
10:20am 14 26 mph 995.9mb 31f
10:10am 18 29 mph 995.6mb 31f
10:00am 15 24 mph 995.6mb 31f
9:50am 15 25 mph 996.3mb 31f
9:40am 14 23 mph 996.3mb 31f
9:30am 16 31 mph 996.6mb 31f
9:20am 24 37 mph 996.6mb 31f
9:10am 30 40 mph 995.9mb 31f
9:00am 33 39 mph 995.9mb 31f
8:50am 28 36 mph 997.3mb 30f
8:40am 25 33 mph 998mb 30f
8:30am 26 32 mph 998.3mb 29f
8:20am 23 29 mph 998.6mb 29f
8:10am 17 26 mph 999.3mb 29f
8:00am 14 26 mph 999mb 28f
7:50am 23 32 mph 999mb 28f
7:40am 25 31 mph 999.3mb 28f
7:30am 22 31 mph 1000mb 27f
7:20am 22 30 mph 1000.7mb 27f
7:10am 20 29 mph 1001mb 27f
7:00am 16 23 mph 1001.4mb 26f
6:50am 13 23 mph 1002mb 26f
6:40am 14 23 mph 1002.4mb 25f
6:30am 17 24 mph 1003mb 25f
6:20am 16 24 mph 1003.4mb 24f
6:10am 14 24 mph 1003.7mb 24f
6:00am 17 24 mph 1004.1mb 25f
5:50am 17 24 mph 1004.4mb 25f
5:40am 15 22 mph 1004.4mb 25f
5:30am 16 25 mph 1005.1mb 25f
5:20am 18 24 mph 1005.1mb 25f
5:10am 11 23 mph 1005.4mb 25f
5:00am 18 23 mph 1005.8mb 24f
4:50am 15 22 mph 1005.8mb 24f
4:40am 14 21 mph 1006.1mb 24f
4:30am 11 22 mph 1005.8mb 24f
4:20am 14 21 mph 1006.4mb 24f
4:10am 14 21 mph 1006.4mb 23f
4:00am 15 18 mph 1006.4mb 23f
3:50am 13 18 mph 1007.1mb 23f
3:40am 13 16 mph 1007.5mb 23f
3:30am 11 15 mph 1008.1mb 22f
3:20am 10 15 mph 1008.8mb 22f
3:10am 11 14 mph 1008.8mb 22f
3:00am 9 14 mph 1009.1mb 22f
2:50am 8 14 mph 1009.1mb 22f
2:40am 10 11 mph 1009.5mb 21f
2:30am 10 14 mph 1009.8mb 21f
2:20am 7 11 mph 1009.8mb 21f
2:10am 8 11 mph 1010.2mb 21f
2:00am 8 10 mph 1010.2mb 21f
1:50am 3 8 mph 1010.5mb 21f
1:40am 8 9 mph 1010.2mb 20f
1:30am 8 9 mph 1010.2mb 20f
1:20am 3 6 mph 1010.5mb 20f
1:10am 3 5 mph 1010.8mb 20f
1:00am 3 6 mph 1011.2mb 20f
12:50am 6 6 mph 1011.2mb 20f
12:40am 5 7 mph 1011.5mb 20f
12:30am 5 6 mph 1011.9mb 20f
12:20am 2 5 mph 1012.2mb 20f
12:10am 6 7 mph 1011.9mb 20f
12:00am 1 6 mph 1012.2mb 20f
Tue 12/12 11:50pm 5 6 mph 1012.5mb 19f
11:40pm 3 8 mph 1012.5mb 20f
11:30pm 6 9 mph 1012.9mb 20f
11:20pm 6 8 mph 1013.2mb 20f
11:10pm 6 9 mph 1013.2mb 20f
11:00pm 6 8 mph 1013.2mb 19f
10:50pm 5 7 mph 1013.5mb 19f
10:40pm 6 9 mph 1013.9mb 19f
10:30pm 6 8 mph 1013.9mb 19f
10:20pm 7 10 mph 1013.9mb 19f
10:10pm 6 10 mph 1013.9mb 19f
10:00pm 6 13 mph 1014.2mb 19f
9:50pm 9 11 mph 1014.6mb 19f
9:40pm 10 13 mph 1014.6mb 19f
9:30pm 10 13 mph 1014.9mb 19f
9:20pm 8 13 mph 1014.9mb 19f
9:10pm 10 14 mph 1014.9mb 19f
9:00pm 8 14 mph 1014.9mb 19f
8:50pm 8 13 mph 1014.9mb 18f
8:40pm 8 13 mph 1015.2mb 18f
8:30pm 8 10 mph 1014.9mb 18f
8:20pm 7 11 mph 1015.2mb 18f
8:10pm 6 10 mph 1015.2mb 18f
8:00pm 7 10 mph 1015.2mb 18f
7:50pm 8 10 mph 1015.2mb 18f
7:40pm 6 9 mph 1015.6mb 18f
7:30pm 6 9 mph 1015.6mb 18f
7:20pm 6 9 mph 1015.9mb 18f
7:10pm 6 8 mph 1015.9mb 18f
7:00pm 6 8 mph 1015.9mb 17f
6:50pm 6 10 mph 1015.9mb 18f
6:40pm 7 9 mph 1015.9mb 17f
6:30pm 7 9 mph 1015.9mb 17f
6:20pm 7 9 mph 1016.3mb 18f
6:10pm 7 9 mph 1015.9mb 18f
6:00pm 8 13 mph 1016.3mb 18f
5:50pm 9 13 mph 1016.3mb 18f
5:40pm 10 15 mph 1016.3mb 18f
5:30pm 10 13 mph 1016.3mb 18f
5:20pm 7 10 mph 1016.3mb 18f
5:10pm 7 10 mph 1016.3mb 18f
5:00pm 8 10 mph 1016.3mb 19f
4:50pm 8 10 mph 1016.3mb 19f
4:40pm 9 13 mph 1016.3mb 19f
4:30pm 10 14 mph 1016.3mb 19f
4:20pm 11 16 mph 1016.6mb 19f
4:10pm 10 17 mph 1016.6mb 19f
4:00pm 10 17 mph 1016.6mb 20f
3:50pm 11 18 mph 1016.6mb 20f
3:40pm 15 18 mph 1016.6mb 20f
3:30pm 11 18 mph 1016.6mb 20f
3:20pm 15 20 mph 1016.3mb 20f
3:10pm 18 24 mph 1016.3mb 20f
3:00pm 14 23 mph 1016.3mb 20f
2:50pm 16 22 mph 1016.6mb 20f
2:40pm 14 23 mph 1016.6mb 20f
2:30pm 15 23 mph 1016.6mb 20f
2:20pm 15 20 mph 1016.6mb 20f
2:10pm 14 21 mph 1016.9mb 19f
2:00pm 14 22 mph 1016.6mb 20f
1:50pm 15 21 mph 1016.6mb 20f
1:40pm 16 24 mph 1016.6mb 20f
1:30pm 15 22 mph 1016.9mb 20f
1:20pm 16 24 mph 1016.9mb 19f
1:10pm 17 23 mph 1017.3mb 19f
1:00pm 14 17 mph 1017.3mb 20f
12:50pm 15 23 mph 1017.3mb 19f
12:40pm 14 23 mph 1017.3mb 19f
12:30pm 18 22 mph 1017.6mb 19f
12:20pm 13 22 mph 1017.6mb 19f
12:10pm 15 23 mph 1017.6mb 19f
12:00pm 17 23 mph 1017.6mb 19f
11:50am 14 20 mph 1017.9mb 19f
11:40am 15 23 mph 1017.9mb 19f
11:30am 11 24 mph 1017.9mb 19f
11:20am 15 24 mph 1017.9mb 19f
11:10am 23 30 mph 1017.9mb 18f
11:00am 20 25 mph 1017.9mb 19f
10:50am 16 25 mph 1017.9mb 19f
10:40am 18 28 mph 1018.3mb 18f
10:30am 21 25 mph 1018.3mb 18f
10:20am 21 26 mph 1018.3mb 18f
10:10am 21 26 mph 1017.9mb 17f
10:00am 20 23 mph 1018.6mb 18f
9:50am 18 25 mph 1018.6mb 17f
9:40am 21 28 mph 1018.6mb 17f
9:30am 18 24 mph 1018.3mb 17f
9:20am 21 26 mph 1017.9mb 17f
9:10am 15 24 mph 1018.6mb 17f
9:00am 17 25 mph 1018.3mb 17f
8:50am 15 25 mph 1017.9mb 17f
8:40am 14 21 mph 1017.9mb 17f
8:30am 15 21 mph 1018.3mb 17f
8:20am 14 18 mph 1018.3mb 16f
8:10am 15 21 mph 1017.9mb 16f
8:00am 14 18 mph 1017.9mb 16f
7:50am 14 20 mph 1017.9mb 17f
7:40am 16 20 mph 1017.6mb 17f
7:30am 17 24 mph 1017.6mb 17f
7:20am 16 22 mph 1017.6mb 17f
7:10am 16 25 mph 1017.6mb 17f
7:00am 15 20 mph 1017.6mb 17f
6:50am 15 24 mph 1017.6mb 18f
6:40am 14 21 mph 1017.3mb 18f
6:30am 16 23 mph 1017.3mb 18f
6:20am 14 21 mph 1017.3mb 19f
6:10am 15 26 mph 1017.3mb 19f
6:00am 17 22 mph 1017.3mb 19f
5:50am 17 21 mph 1016.9mb 19f
5:40am 14 23 mph 1016.9mb 19f
5:30am 16 22 mph 1016.9mb 19f
5:20am 17 21 mph 1016.6mb 19f
5:10am 17 23 mph 1016.6mb 20f
5:00am 20 24 mph 1016.6mb 20f
4:50am 22 33 mph 1016.3mb 21f
4:40am 21 34 mph 1016.3mb 21f
4:30am 22 25 mph 1016.3mb 21f
4:20am 23 33 mph 1015.9mb 21f
4:10am 18 25 mph 1016.3mb 21f
4:00am 16 23 mph 1016.3mb 21f
3:50am 20 29 mph 1016.3mb 21f
3:40am 15 22 mph 1016.3mb 21f
3:30am 16 24 mph 1015.9mb 22f
3:20am 18 26 mph 1015.6mb 22f
3:10am 20 24 mph 1015.6mb 22f
3:00am 18 22 mph 1015.6mb 22f
2:50am 18 22 mph 1015.6mb 22f
2:40am 20 26 mph 1015.2mb 23f
2:30am 21 26 mph 1015.2mb 23f
2:20am 21 29 mph 1015.2mb 23f
2:10am 21 31 mph 1014.9mb 23f
2:00am 22 31 mph 1014.9mb 24f
1:50am 20 29 mph 1014.9mb 24f
1:40am 22 29 mph 1014.9mb 24f
1:30am 18 31 mph 1014.9mb 24f
1:20am 24 36 mph 1014.6mb 25f
1:10am 26 36 mph 1014.2mb 25f
1:00am 29 37 mph 1013.9mb 25f
12:50am 22 30 mph 1013.9mb 25f
12:40am 21 33 mph 1013.9mb 26f
12:30am 23 30 mph 1013.9mb 26f
12:20am 28 37 mph 1013.5mb 26f
12:10am 24 34 mph 1013.2mb 27f
12:00am 29 36 mph 1012.9mb 27f
Mon 12/11 11:50pm 30 34 mph 1012.9mb 28f
11:40pm 21 30 mph 1012.5mb 29f
11:30pm 24 31 mph 1012.5mb 29f
11:20pm 26 37 mph 1011.9mb 30f
11:10pm 25 31 mph 1011.9mb 31f
11:00pm 20 26 mph 1011.9mb 31f
10:50pm 18 28 mph 1011.5mb 31f
10:40pm 21 26 mph 1011.5mb 31f
10:30pm 22 29 mph 1011.5mb 31f
10:20pm 17 24 mph 1011.5mb 31f
10:10pm 18 25 mph 1011.2mb 31f
10:00pm 14 25 mph 1011.5mb 31f
9:50pm 16 28 mph 1011.5mb 31f
9:40pm 17 25 mph 1011.5mb 31f
9:30pm 21 37 mph 1011.2mb 31f
9:20pm 25 34 mph 1010.8mb 31f
9:10pm 21 26 mph 1010.8mb 31f
9:00pm 24 32 mph 1010.5mb 31f
8:50pm 25 31 mph 1010.2mb 31f
8:40pm 25 34 mph 1010.2mb 32f
8:30pm 22 26 mph 1009.8mb 32f
8:20pm 16 23 mph 1010.2mb 32f
8:10pm 20 22 mph 1009.5mb 32f
8:00pm 17 23 mph 1009.5mb 33f
7:50pm 15 21 mph 1009.1mb 33f
7:40pm 14 17 mph 1009.1mb 33f
7:30pm 13 16 mph 1008.8mb 33f
7:20pm 11 17 mph 1008.8mb 32f
7:10pm 11 17 mph 1008.5mb 32f
7:00pm 11 14 mph 1008.5mb 32f
6:50pm 10 15 mph 1008.1mb 32f
6:40pm 8 11 mph 1008.1mb 32f
6:30pm 9 11 mph 1008.1mb 32f
6:20pm 8 13 mph 1008.1mb 32f
6:10pm 8 10 mph 1008.1mb 32f
6:00pm 8 10 mph 1008.1mb 32f
5:50pm 7 9 mph 1008.1mb 32f
5:40pm 7 9 mph 1007.8mb 32f
5:30pm 6 8 mph 1007.8mb 32f
5:20pm 6 10 mph 1007.8mb 32f
5:10pm 8 10 mph 1007.8mb 32f
5:00pm 7 8 mph 1007.5mb 32f
4:50pm 8 10 mph 1007.1mb 32f
4:40pm 7 10 mph 1007.1mb 32f
4:30pm 7 9 mph 1007.1mb 32f
4:20pm 7 9 mph 1006.8mb 32f
4:10pm 2 3 mph 1006.4mb 33f
4:00pm 3 3 mph 1006.1mb 33f
3:50pm  -  1 mph 1006.1mb 33f
3:40pm 1 3 mph 1006.1mb 32f
3:30pm 3 3 mph 1006.1mb 32f
3:20pm 2 3 mph 1006.1mb 33f
3:10pm 3 5 mph 1006.4mb 33f
3:00pm 2 3 mph 1006.1mb 34f
2:50pm 2 5 mph 1006.1mb 34f
2:40pm 3 6 mph 1005.8mb 34f
2:30pm 5 6 mph 1005.8mb 34f
2:20pm 5 7 mph 1005.8mb 34f
2:10pm 3 7 mph 1005.8mb 34f
2:00pm 3 8 mph 1005.8mb 34f
1:50pm 6 8 mph 1005.8mb 34f
1:40pm 7 13 mph 1005.8mb 34f
1:30pm 9 14 mph 1005.8mb 34f
1:20pm 9 16 mph 1005.8mb 34f
1:10pm 14 18 mph 1006.1mb 34f
1:00pm 15 17 mph 1006.1mb 34f
12:50pm 15 17 mph 1006.4mb 34f
12:40pm 9 15 mph 1006.8mb 34f
12:30pm 13 17 mph 1006.8mb 34f
12:20pm 10 18 mph 1007.1mb 34f